CW3065 Weather Reports


time (UTC)temp
C
wind
direction
speed
KPH
gust
KPH
rain 1hr
cm
rain 24hr
cm
rain mn
cm
humidity
%
barometer
mb
20260509172504 16 259 14.5 27.4 0.00 0.00 0.00 20 1004.6
20260509171504 15 248 14.5 29.0 0.00 0.00 0.00 23 1004.5
20260509171004 15 247 20.9 32.2 0.00 0.00 0.00 18 1004.4
20260509170505 15 240 14.5 29.0 0.00 0.00 0.00 23 1004.2
20260509165504 15 245 20.9 32.2 0.00 0.00 0.00 20 1004.4
20260509165004 15 243 17.7 32.2 0.00 0.00 0.00 22 1004.6
20260509164505 15 255 12.9 24.1 0.00 0.00 0.00 21 1004.7
20260509164004 15 203 16.1 32.2 0.00 0.00 0.00 21 1004.6
20260509163505 15 252 14.5 32.2 0.00 0.00 0.00 20 1004.5
20260509163005 15 221 14.5 24.1 0.00 0.00 0.00 20 1004.5
20260509162504 15 223 14.5 25.7 0.00 0.00 0.00 22 1004.5
20260509162004 15 225 9.7 22.5 0.00 0.00 0.00 22 1004.6
20260509161505 15 206 8.0 19.3 0.00 0.00 0.00 22 1004.6
20260509161004 15 250 9.7 24.1 0.00 0.00 0.00 22 1004.6
20260509160504 15 249 14.5 22.5 0.00 0.00 0.00 20 1004.6
20260509155504 15 240 8.0 16.1 0.00 0.00 0.00 21 1004.5
20260509155004 15 277 9.7 20.9 0.00 0.00 0.00 20 1004.4
20260509154505 15 225 8.0 16.1 0.00 0.00 0.00 22 1004.3
20260509154004 15 246 8.0 19.3 0.00 0.00 0.00 22 1004.2
20260509153504 15 219 4.8 19.3 0.00 0.00 0.00 20 1004.2
20260509152504 14 236 3.2 16.1 0.00 0.00 0.00 21 1004.6
20260509152004 14 248 9.7 20.9 0.00 0.00 0.00 21 1004.5
20260509151505 14 242 4.8 9.7 0.00 0.00 0.00 22 1004.6
20260509151004 14 299 4.8 14.5 0.00 0.00 0.00 22 1004.7
20260509150505 14 270 4.8 16.1 0.00 0.00 0.00 23 1004.8
20260509150004 13 291 8.0 16.1 0.00 0.00 0.00 25 1004.6
20260509145004 13 203 11.3 22.5 0.00 0.00 0.00 23 1004.7
20260509144504 13 199 11.3 19.3 0.00 0.00 0.00 26 1004.6
20260509144004 13 199 8.0 16.1 0.00 0.00 0.00 23 1004.7
20260509143504 13 237 9.7 20.9 0.00 0.00 0.00 22 1004.8
20260509143004 13 253 3.2 11.3 0.00 0.00 0.00 27 1004.7
20260509142504 13 85 4.8 9.7 0.00 0.00 0.00 27 1004.5
20260509142005 13 167 1.6 3.2 0.00 0.00 0.00 27 1004.7
20260509141504 13 280 0.0 3.2 0.00 0.00 0.00 26 1004.7
20260509141004 12 261 1.6 9.7 0.00 0.00 0.00 26 1004.7
20260509140505 12 243 4.8 16.1 0.00 0.00 0.00 29 1004.6
20260509140005 12 257 4.8 20.9 0.00 0.00 0.00 31 1004.7
20260509135505 12 249 3.2 19.3 0.00 0.00 0.00 31 1004.9
20260509134504 11 279 6.4 11.3 0.00 0.00 0.00 33 1005.2
20260509134004 11 257 9.7 24.1 0.00 0.00 0.00 31 1005.1
20260509133504 11 269 11.3 20.9 0.00 0.00 0.00 33 1005.2
20260509133005 11 287 3.2 9.7 0.00 0.00 0.00 35 1004.9
20260509132504 10 282 8.0 9.7 0.00 0.00 0.00 34 1004.8
20260509132004 10 265 6.4 11.3 0.00 0.00 0.00 37 1004.8
20260509131504 10 237 8.0 19.3 0.00 0.00 0.00 38 1004.8
20260509131005 10 252 4.8 14.5 0.00 0.00 0.00 38 1004.7
20260509130504 9 230 8.0 14.5 0.00 0.00 0.00 40 1004.7
20260509130004 8 253 6.4 19.3 0.00 0.00 0.00 39 1004.7
20260509125005 9 254 4.8 8.0 0.00 0.00 0.00 39 1004.5
20260509124504 9 254 8.0 14.5 0.00 0.00 0.00 38 1004.5
20260509123504 10 240 8.0 20.9 0.00 0.00 0.00 37 1004.3
20260509122503 10 258 6.4 12.9 0.00 0.00 0.00 37 1004.1
20260509121504 10 270 8.0 19.3 0.00 0.00 0.00 36 1004.0
20260509121004 10 248 8.0 19.3 0.00 0.00 0.00 35 1004.1
20260509120005 10 276 25.7 45.1 0.00 0.00 0.00 36 1003.7
20260509115504 9 263 12.9 19.3 0.00 0.00 0.00 40 1003.7
20260509115004 9 244 14.5 27.4 0.00 0.00 0.00 40 1003.9
20260509114504 9 243 12.9 33.8 0.00 0.00 0.00 41 1003.9
20260509113504 10 245 14.5 27.4 0.00 0.00 0.00 40 1003.7
20260509113004 10 250 16.1 27.4 0.00 0.00 0.00 40 1003.7
20260509112504 10 259 22.5 41.8 0.00 0.00 0.00 38 1003.5
20260509112004 10 248 11.3 29.0 0.00 0.00 0.00 39 1003.6
20260509111004 10 245 20.9 46.7 0.00 0.00 0.00 39 1003.3
20260509105004 10 242 19.3 32.2 0.00 0.00 0.00 41 1003.6
20260509104504 10 246 11.3 32.2 0.00 0.00 0.00 42 1003.8
20260509104004 10 232 11.3 22.5 0.00 0.00 0.00 42 1003.9
20260509103504 9 257 11.3 22.5 0.00 0.00 0.00 42 1004.1
20260509103004 9 236 9.7 22.5 0.00 0.00 0.00 43 1004.2
20260509102504 9 240 11.3 25.7 0.00 0.00 0.00 43 1003.8
20260509101504 10 254 11.3 25.7 0.00 0.00 0.00 42 1004.1
20260509101004 10 269 16.1 29.0 0.00 0.00 0.00 42 1004.0
20260509100505 10 244 11.3 24.1 0.00 0.00 0.00 41 1003.8
20260509100005 10 253 17.7 29.0 0.00 0.00 0.00 40 1003.9
20260509095504 10 254 14.5 27.4 0.00 0.00 0.00 41 1004.0
20260509095004 10 249 19.3 33.8 0.00 0.00 0.00 41 1003.8
20260509094504 10 244 11.3 24.1 0.00 0.00 0.00 42 1003.9
20260509094004 10 259 20.9 35.4 0.00 0.00 0.00 41 1003.8
20260509093504 10 246 17.7 38.6 0.00 0.00 0.00 42 1003.8
20260509093004 10 250 14.5 22.5 0.00 0.00 0.00 42 1003.8
20260509092004 9 244 11.3 20.9 0.00 0.00 0.00 44 1004.3
20260509091504 8 236 11.3 19.3 0.00 0.00 0.00 46 1004.5
20260509091004 8 241 9.7 19.3 0.00 0.00 0.00 47 1004.7
20260509090504 8 241 11.3 22.5 0.00 0.00 0.00 48 1004.7
20260509085504 6 251 8.0 19.3 0.00 0.00 0.00 57 1004.7
20260509085005 3 243 11.3 20.9 0.00 0.00 0.00 69 1004.7
20260509084504 1 241 9.7 22.5 0.00 0.00 0.00 82 1004.8
20260509083504 1 336 1.6 4.8 0.00 0.00 0.00 87 1004.7
20260509083004 1 317 1.6 8.0 0.00 0.00 0.00 88 1004.7
20260509082004 1 177 4.8 8.0 0.00 0.00 0.00 88 1004.7
20260509081004 1 177 1.6 4.8 0.00 0.00 0.00 87 1004.8
20260509080505 1 177 1.6 4.8 0.00 0.00 0.00 87 1004.8
20260509080004 1 288 1.6 4.8 0.00 0.00 0.00 87 1004.8
20260509075504 1 288 0.0 3.2 0.00 0.00 0.00 87 1004.8
20260509073504 2 288 4.8 4.8 0.00 0.00 0.00 86 1005.3
20260509073004 2 288 1.6 4.8 0.00 0.00 0.00 86 1005.4
20260509072504 2 288 3.2 4.8 0.00 0.00 0.00 86 1005.3
20260509071504 2 288 3.2 8.0 0.00 0.00 0.00 86 1005.4
20260509071004 2 321 3.2 4.8 0.00 0.00 0.00 85 1005.6
20260509070504 2 321 1.6 4.8 0.00 0.00 0.00 85 1005.6
20260509070005 2 321 0.0 3.2 0.00 0.00 0.00 85 1005.8
20260509065504 2 321 0.0 1.6 0.00 0.00 0.00 85 1005.8
20260509065004 2 321 4.8 8.0 0.00 0.00 0.00 84 1005.8
20260509064504 2 321 3.2 4.8 0.00 0.00 0.00 84 1005.8
20260509064004 2 321 1.6 3.2 0.00 0.00 0.00 84 1005.7
20260509063004 3 321 6.4 9.7 0.00 0.00 0.00 82 1005.8
20260509062504 3 215 3.2 4.8 0.00 0.00 0.00 82 1005.9
20260509062004 3 215 3.2 3.2 0.00 0.00 0.00 82 1005.9
20260509061504 3 215 1.6 4.8 0.00 0.00 0.00 81 1006.0
20260509060504 3 215 1.6 4.8 0.00 0.00 0.00 81 1006.0
20260509055504 3 215 1.6 3.2 0.00 0.00 0.00 80 1006.0
20260509055004 3 215 3.2 4.8 0.00 0.00 0.00 80 1006.2
20260509054504 3 215 3.2 4.8 0.00 0.00 0.00 79 1006.5
20260509054004 4 215 3.2 4.8 0.00 0.00 0.00 78 1006.5
20260509053504 4 215 1.6 4.8 0.00 0.00 0.00 77 1006.6
20260509053004 4 215 0.0 1.6 0.00 0.00 0.00 76 1006.6
20260509052004 5 215 1.6 4.8 0.00 0.00 0.00 76 1006.7
20260509051004 5 215 3.2 4.8 0.00 0.00 0.00 77 1006.7
20260509050504 5 215 1.6 4.8 0.00 0.00 0.00 79 1006.7
20260509045504 5 21 1.6 3.2 0.00 0.00 0.00 79 1006.7
20260509045004 5 21 1.6 3.2 0.00 0.00 0.00 79 1006.7
20260509044504 5 21 0.0 1.6 0.00 0.00 0.00 79 1006.7
20260509043004 5 218 0.0 3.2 0.00 0.00 0.00 77 1007.1
20260509042504 5 218 0.0 3.2 0.00 0.00 0.00 77 1007.1
20260509042004 5 218 1.6 4.8 0.00 0.03 0.00 77 1007.1
20260509041504 5 218 4.8 8.0 0.00 0.03 0.00 77 1006.9
20260509041004 5 18 0.0 3.2 0.00 0.03 0.00 77 1006.8
20260509040504 6 18 1.6 3.2 0.00 0.03 0.00 77 1006.7
20260509040005 6 18 1.6 3.2 0.00 0.03 0.00 76 1007.0
20260509035004 6 18 3.2 4.8 0.00 0.03 0.00 76 1006.9
20260509034504 6 18 0.0 0.0 0.00 0.03 0.00 75 1006.8
20260509033504 6 18 4.8 4.8 0.00 0.03 0.00 74 1006.8
20260509033004 6 18 4.8 4.8 0.00 0.03 0.00 73 1006.8
20260509032504 6 18 3.2 4.8 0.00 0.03 0.00 73 1006.7
20260509032004 7 18 3.2 4.8 0.00 0.03 0.00 72 1006.7
20260509031505 7 18 3.2 4.8 0.00 0.03 0.00 73 1006.7
20260509031004 7 18 1.6 3.2 0.00 0.03 0.00 73 1006.6
20260509030504 7 18 4.8 4.8 0.00 0.03 0.00 73 1006.6
20260509030004 7 18 1.6 4.8 0.00 0.03 0.00 72 1006.5
20260509025505 7 18 3.2 4.8 0.00 0.03 0.00 71 1006.6
20260509024504 8 18 1.6 4.8 0.00 0.03 0.00 68 1006.6
20260509024005 8 18 4.8 8.0 0.00 0.03 0.00 68 1006.5
20260509023504 8 18 1.6 4.8 0.00 0.03 0.00 67 1006.6
20260509023004 8 18 1.6 4.8 0.00 0.03 0.00 66 1006.5
20260509022504 9 18 3.2 4.8 0.00 0.03 0.00 65 1006.5
20260509022004 10 18 6.4 8.0 0.00 0.03 0.00 63 1006.5
20260509021504 10 18 6.4 9.7 0.00 0.03 0.00 62 1006.4
20260509021004 10 7 4.8 11.3 0.00 0.03 0.00 60 1006.5
20260509020505 10 262 0.0 4.8 0.00 0.03 0.00 60 1006.5
20260509015503 11 250 0.0 3.2 0.00 0.03 0.00 59 1006.5
20260509015004 11 148 3.2 4.8 0.00 0.03 0.00 58 1006.5
20260509014504 11 148 1.6 4.8 0.00 0.03 0.00 58 1006.4
20260509014004 11 93 6.4 16.1 0.00 0.03 0.00 57 1006.4
20260509013504 11 129 8.0 12.9 0.00 0.03 0.00 57 1006.4
20260509013004 12 93 6.4 11.3 0.00 0.03 0.00 56 1006.4
20260509012504 12 31 8.0 16.1 0.00 0.03 0.00 56 1006.3
20260509012004 12 54 8.0 16.1 0.00 0.03 0.00 54 1006.2
20260509011504 12 351 6.4 11.3 0.00 0.03 0.00 53 1006.2
20260509011004 13 352 4.8 9.7 0.00 0.03 0.00 53 1006.1
20260509010505 13 75 9.7 19.3 0.00 0.03 0.00 52 1005.9
20260509010004 13 25 6.4 16.1 0.00 0.03 0.00 52 1006.0
20260509005004 13 344 3.2 9.7 0.00 0.03 0.00 51 1006.0
20260509004504 13 8 8.0 11.3 0.00 0.03 0.00 49 1005.9
20260509004005 13 22 9.7 12.9 0.00 0.03 0.00 50 1005.9
20260509003504 14 17 8.0 14.5 0.00 0.03 0.00 48 1005.9
20260509003004 14 77 8.0 14.5 0.00 0.03 0.00 48 1005.8
20260509002504 14 44 4.8 9.7 0.00 0.03 0.00 48 1005.9
20260509001504 15 121 4.8 19.3 0.00 0.03 0.00 45 1005.9
20260509000505 17 271 3.2 4.8 0.00 0.03 0.00 28 1006.1
20260509000005 17 271 3.2 4.8 0.00 0.03 0.00 29 1006.1
20260508235504 17 302 4.8 8.0 0.00 0.03 0.00 29 1006.2
20260508235004 17 313 9.7 19.3 0.00 0.03 0.00 29 1006.2
20260508234504 17 289 4.8 19.3 0.00 0.03 0.00 29 1006.1
20260508234004 17 309 14.5 19.3 0.00 0.03 0.00 28 1006.2
20260508233504 17 271 4.8 19.3 0.00 0.03 0.00 28 1006.2
20260508233004 17 270 11.3 19.3 0.00 0.03 0.00 28 1006.2
20260508232504 16 271 14.5 24.1 0.00 0.03 0.00 32 1006.1
20260508232004 16 263 3.2 4.8 0.00 0.03 0.00 31 1006.2
20260508231504 16 263 6.4 16.1 0.00 0.03 0.00 28 1006.2
20260508231004 16 273 8.0 19.3 0.00 0.03 0.00 28 1006.1
20260508230504 16 274 12.9 22.5 0.00 0.03 0.00 29 1006.1
20260508225504 16 278 4.8 27.4 0.00 0.03 0.00 29 1006.3
20260508225004 16 279 8.0 16.1 0.00 0.03 0.00 31 1006.7
20260508224504 16 322 8.0 19.3 0.00 0.03 0.00 31 1006.7
20260508224005 17 256 9.7 19.3 0.00 0.03 0.00 29 1006.6
20260508223004 16 266 14.5 25.7 0.00 0.03 0.00 30 1006.7
20260508222504 16 267 8.0 19.3 0.00 0.03 0.00 32 1006.6
20260508222004 15 219 8.0 16.1 0.00 0.03 0.00 42 1006.4
20260508221504 15 178 9.7 16.1 0.00 0.03 0.00 43 1006.4
20260508221005 15 21 6.4 11.3 0.00 0.03 0.00 45 1006.4
20260508220504 14 52 3.2 8.0 0.00 0.03 0.00 50 1006.4
20260508220004 13 152 1.6 11.3 0.00 0.03 0.00 50 1006.5
20260508215504 14 151 4.8 14.5 0.00 0.03 0.00 46 1006.5
20260508215004 14 223 1.6 4.8 0.00 0.03 0.00 49 1006.5
20260508214504 14 176 6.4 8.0 0.00 0.03 0.00 42 1006.6
20260508214004 15 155 8.0 11.3 0.00 0.03 0.00 38 1006.8
20260508213504 15 321 1.6 8.0 0.00 0.03 0.00 30 1006.9
20260508213004 15 306 8.0 11.3 0.00 0.03 0.00 29 1007.0
20260508212504 15 246 3.2 11.3 0.00 0.03 0.00 30 1007.0
20260508212004 15 247 4.8 9.7 0.00 0.03 0.00 30 1007.0
20260508211005 15 269 1.6 4.8 0.00 0.03 0.00 30 1007.0
20260508210504 15 275 9.7 19.3 0.00 0.03 0.00 31 1007.1
20260508210004 15 256 11.3 19.3 0.00 0.03 0.00 30 1007.3
20260508205503 15 238 4.8 11.3 0.00 0.03 0.00 29 1007.4
20260508205004 15 260 11.3 19.3 0.00 0.03 0.00 28 1007.4
20260508204504 15 244 3.2 9.7 0.00 0.03 0.00 29 1007.4
20260508204004 14 262 3.2 8.0 0.00 0.03 0.00 31 1007.4
20260508203504 15 230 8.0 14.5 0.00 0.03 0.00 29 1007.2
20260508203004 15 271 0.0 4.8 0.00 0.03 0.00 28 1007.2
20260508202504 15 226 3.2 8.0 0.00 0.03 0.00 31 1007.3
20260508202004 15 230 8.0 16.1 0.00 0.03 0.00 29 1007.3
20260508201504 15 271 12.9 19.3 0.00 0.03 0.00 28 1007.4
20260508200504 15 202 4.8 19.3 0.00 0.03 0.00 32 1007.5
20260508195504 15 323 6.4 16.1 0.00 0.03 0.00 31 1007.6
20260508195004 15 318 4.8 12.9 0.00 0.03 0.00 32 1008.0
20260508194504 15 257 4.8 11.3 0.00 0.03 0.00 29 1008.1
20260508194004 15 248 4.8 9.7 0.00 0.03 0.00 27 1008.1
20260508193505 15 353 8.0 16.1 0.00 0.03 0.00 30 1008.0
20260508193004 15 330 8.0 19.3 0.00 0.03 0.00 31 1008.1
20260508192504 15 253 3.2 11.3 0.00 0.03 0.00 32 1008.3
20260508191505 15 232 11.3 25.7 0.00 0.03 0.00 27 1008.2
20260508191004 15 240 4.8 9.7 0.00 0.03 0.00 29 1008.5
20260508190004 13 257 11.3 20.9 0.00 0.03 0.00 31 1008.5
20260508185504 13 323 6.4 24.1 0.00 0.03 0.00 36 1008.7
20260508185005 13 274 11.3 24.1 0.00 0.03 0.00 31 1008.6
20260508184504 13 244 1.6 20.9 0.00 0.03 0.00 32 1008.7
20260508184004 13 291 11.3 19.3 0.00 0.03 0.00 35 1008.7
20260508183004 13 220 4.8 11.3 0.00 0.03 0.00 33 1008.6
20260508182504 13 309 8.0 24.1 0.00 0.03 0.00 37 1008.7
20260508182004 12 220 3.2 9.7 0.00 0.03 0.00 35 1008.8
20260508181504 12 244 3.2 11.3 0.00 0.03 0.00 36 1008.8
20260508180504 12 242 16.1 29.0 0.00 0.03 0.00 36 1008.9
20260508180004 12 230 14.5 22.5 0.00 0.03 0.00 35 1008.8
20260508175504 12 220 6.4 8.0 0.00 0.03 0.00 37 1008.9
20260508175004 11 250 8.0 19.3 0.00 0.03 0.00 37 1009.0
20260508174504 11 254 9.7 20.9 0.00 0.03 0.00 37 1008.9
20260508174004 11 260 9.7 19.3 0.00 0.03 0.00 39 1009.0
20260508173504 11 237 9.7 16.1 0.00 0.03 0.00 40 1008.9